Powrót do katalogu

COSMOS 2251 DEB

AktywnyVLEO
NORAD 34884·DEBRIS·🇷🇺 Russia

Wystrzelony Jun 16, 1993 z Plesetsk Cosmodrome

Loading…

Następne Przeloty (najbliższe 24 godziny)

TLE

ŚwieżeSource: Space-Track

Epoka: Sep 14, 2026, 08:08 UTC

1 34884U 93036ACX 26257.33942397  .00025821  00000-0  18143-2 0  9997
2 34884  74.0107 217.4612 0009629 247.7655 269.7204 15.04983927919325

Śledź COSMOS 2251 DEB w czasie rzeczywistym z AllMySat

Download on the App Store